Date,TemperatureHighF,TemperatureAvgF,TemperatureLowF,DewpointHighF,DewpointAvgF,DewpointLowF,HumidityHigh,HumidityAvg,HumidityLow,PressureMaxIn,PressureMinIn,WindSpeedMaxMPH,WindSpeedAvgMPH,GustSpeedMaxMPH,PrecipitationSumIn
2013-11-1,81,80,76,74,71,68,82,74,67,30.04,29.89,20,17,25,0.00
2013-11-2,80,75,68,74,66,58,82,73,57,29.95,29.84,29,17,36,0.00
2013-11-3,75,72,73,59,50,-100,60,47,37,30.11,29.94,22,19,29,0.00
2013-11-4,78,76,74,65,59,54,73,55,45,30.16,30.09,31,25,38,0.00
2013-11-5,78,77,74,69,66,61,78,68,57,30.17,30.09,31,26,38,0.00
2013-11-6,79,77,73,69,65,62,83,67,55,30.13,30.06,27,15,34,0.00
2013-11-7,77,76,75,69,68,65,81,75,68,30.07,29.97,20,12,22,0.00
2013-11-8,78,76,74,68,65,61,78,69,63,30.12,29.99,27,22,34,0.00
2013-11-9,76,74,74,64,58,-100,66,61,59,30.21,30.10,25,16,31,0.00
2013-11-10,77,76,76,66,63,61,70,63,59,30.19,30.11,13,9,18,0.00
2013-11-11,78,77,77,64,62,61,64,59,56,30.18,30.11,13,10,16,0.00
2013-11-12,77,75,73,66,64,55,75,68,59,30.12,30.02,22,11,27,0.00
2013-11-13,74,70,67,62,55,48,76,59,49,30.31,30.04,34,27,40,0.00
2013-11-14,74,70,67,57,52,46,58,52,44,30.32,30.21,25,20,34,0.00
2013-11-15,77,75,73,64,59,56,64,57,52,30.22,30.12,22,16,27,0.00
2013-11-16,78,76,73,68,61,-100,81,65,58,30.16,30.04,22,14,27,0.00
2013-11-17,79,78,74,70,68,66,82,72,64,30.13,30.04,18,14,20,0.00
2013-11-18,79,77,75,71,69,68,84,75,69,30.05,29.94,16,8,18,0.00
2013-11-19,78,76,73,71,67,64,85,75,65,29.97,29.89,22,16,27,0.00
2013-11-20,78,77,75,69,67,65,81,71,66,30.13,29.96,25,22,31,0.00
2013-11-21,78,78,76,68,66,65,72,68,63,30.20,30.11,25,22,29,0.00
2013-11-22,78,77,76,66,64,60,70,64,57,30.22,30.13,22,18,27,0.00
2013-11-23,79,75,76,65,59,-100,67,63,55,30.14,30.04,16,7,20,0.00
2013-11-24,76,72,68,68,61,52,80,69,58,30.25,30.02,31,23,40,0.00
2013-11-25,73,71,68,63,55,51,71,58,51,30.27,30.14,25,23,34,0.00
2013-11-26,78,76,72,72,69,63,87,78,69,30.13,29.78,31,25,38,0.00
2013-11-27,78,70,58,72,61,46,87,73,56,30.16,29.70,29,24,38,0.00
2013-11-28,70,64,57,53,49,45,67,59,50,30.32,30.15,22,17,29,0.00
2013-11-29,74,71,69,60,54,50,66,54,49,30.35,30.27,27,18,34,0.00
2013-11-30,75,71,68,63,57,-100,81,64,57,30.29,30.18,27,22,34,0.00